GFSFLT2_925_temp_132.txt.gz
Temp
27 26 25 24 24 23 23 22 22 21 20 20 20 20 20 20 20 20 20 20 19 19 20 21 20 18 18 19 18 18 18 17
26 25 25 24 23 23 23 23 22 21 20 20 20 19 20 20 20 20 20 20 19 19 20 20 20 18 19 18 18 18 18 17
25 25 24 24 23 22 22 22 22 20 20 19 20 19 19 19 20 20 20 20 19 19 20 19 19 19 19 18 18 18 18 17
24 24 24 22 22 21 20 21 20 19 19 18 19 19 19 19 19 20 19 19 19 19 19 19 19 20 19 18 18 18 18 17
24 24 24 23 21 20 19 19 19 19 18 18 18 19 19 18 18 19 18 18 19 19 18 19 19 19 19 18 18 19 18 16
24 24 24 23 22 21 19 18 18 18 17 18 17 18 18 18 18 18 18 18 18 18 18 18 18 19 19 19 18 18 17 17
24 23 23 23 22 21 20 18 17 17 18 17 18 17 18 18 18 18 18 18 18 18 18 18 18 18 18 18 17 18 17 17
25 24 23 22 22 21 21 20 19 18 18 17 17 18 18 18 17 17 18 18 18 18 18 18 17 17 18 17 16 17 17 16
23 24 23 22 22 21 21 21 20 20 19 18 17 17 18 18 18 17 18 18 18 18 17 17 17 16 16 16 16 16 17 16
25 23 23 23 22 22 21 20 20 20 19 19 18 18 18 18 18 18 18 18 17 17 17 16 16 16 16 16 15 15 16 15
25 22 23 22 21 20 21 21 20 20 19 19 19 18 18 18 18 18 18 18 17 17 16 17 16 16 16 16 15 14 15 15
25 22 21 20 20 21 21 21 20 20 19 20 20 20 19 19 19 18 18 17 16 15 16 16 16 16 15 15 15 14 14 15
22 21 20 20 21 19 18 18 19 19 20 20 20 20 20 19 18 17 18 17 16 15 15 15 14 15 14 14 13 14 13 13
23 22 22 21 22 22 22 21 20 20 19 20 20 20 20 20 18 17 17 16 15 15 15 14 14 14 14 14 13 13 13 13
21 21 21 21 21 21 20 19 19 18 17 19 19 19 19 20 19 17 16 16 16 15 15 14 14 14 15 15 13 14 13 13
20 20 20 20 20 21 20 19 18 18 19 17 19 19 20 19 19 18 18 16 16 16 15 15 14 14 13 15 16 16 14 12
20 20 20 20 19 19 18 18 18 19 18 17 18 20 20 20 19 18 16 16 16 15 15 14 14 14 14 14 15 16 16 15
19 19 19 20 18 18 18 17 17 17 17 16 17 20 20 19 19 19 18 16 16 15 16 15 14 14 14 14 15 15 15 16
18 18 17 17 17 17 17 17 16 16 17 17 16 18 17 18 18 17 17 16 16 16 15 15 14 14 14 14 14 15 16 16
17 17 16 16 16 16 15 16 16 16 16 15 17 18 18 18 18 17 17 16 16 15 15 15 14 14 14 14 14 14 15 16

GFSFLT2_925_temp_135.txt.gz
Temp
23 24 25 25 24 24 23 22 22 21 21 20 20 20 20 20 20 20 20 20 20 19 19 19 18 18 18 18 18 18 18 18
23 24 24 24 23 23 23 22 22 22 21 20 20 20 20 20 20 20 20 20 20 19 18 18 18 18 18 18 18 17 18 18
23 24 23 23 23 22 22 22 22 21 20 20 20 19 19 19 20 20 20 20 20 19 19 19 19 18 18 18 18 18 18 18
23 24 23 23 22 21 21 21 21 21 20 19 19 19 19 19 20 20 20 20 19 19 19 19 18 18 18 18 20 19 17 17
23 24 24 23 21 20 19 19 20 20 20 19 19 19 19 19 19 19 19 19 19 19 19 19 18 18 17 18 18 19 18 17
23 22 22 22 22 20 18 18 19 18 19 18 18 18 18 18 18 19 19 19 19 18 18 18 18 18 18 18 18 18 18 18
22 22 22 22 21 20 18 17 17 18 18 18 18 18 18 18 18 18 18 18 18 18 18 18 18 18 18 18 17 17 17 18
22 22 22 22 21 21 19 17 17 17 18 17 17 17 17 17 17 17 18 18 18 18 19 18 18 17 17 17 17 17 18 18
21 22 21 21 22 21 20 19 17 17 17 17 17 17 17 16 17 17 17 17 18 17 18 17 17 17 17 17 16 16 17 18
23 21 21 21 21 21 20 20 18 17 17 17 17 17 17 17 17 17 17 17 17 17 17 17 17 17 17 16 15 16 16 16
22 21 21 21 20 20 19 18 18 18 18 19 17 17 17 17 17 17 17 17 17 16 17 17 16 16 16 16 15 15 15 15
24 22 22 20 19 18 17 18 20 19 19 19 19 17 17 17 17 17 17 17 16 15 16 15 16 16 15 15 14 14 14 14
24 20 20 19 18 18 17 17 18 19 19 19 19 18 18 18 18 17 18 17 16 15 15 15 14 14 14 13 13 13 13 13
23 21 20 19 18 18 18 17 18 21 20 19 19 19 19 18 17 17 17 16 16 15 15 14 14 14 15 14 13 12 12 12
17 18 18 19 19 18 19 18 19 17 17 18 18 19 19 18 17 17 16 16 15 15 15 15 14 14 15 15 13 14 13 12
19 19 19 19 19 20 20 19 18 18 18 20 20 19 19 20 18 17 16 16 15 15 15 15 15 14 14 15 16 16 14 12
19 19 19 19 20 20 19 18 18 18 18 18 19 20 19 19 19 18 16 16 15 15 15 14 14 15 14 14 14 15 16 13
17 18 17 18 18 18 18 17 17 17 17 16 17 19 19 19 19 18 17 16 15 15 15 15 14 14 14 14 14 15 14 14
16 16 15 16 16 16 16 16 16 16 16 15 16 16 17 19 19 18 16 16 15 15 15 14 14 14 14 14 14 15 16 15
15 15 15 15 15 16 16 16 16 15 15 15 15 15 16 17 19 19 18 17 15 15 15 14 14 14 14 14 14 14 14 15

GFSFLT2_925_temp_138.txt.gz
Temp
23 22 22 22 22 22 22 22 22 22 21 21 21 21 20 20 21 20 20 19 19 19 19 18 18 18 18 18 18 18 18 17
22 21 21 20 21 22 22 22 22 21 21 21 20 21 20 20 20 21 20 20 19 18 18 18 18 18 18 18 18 18 17 18
22 21 20 20 21 22 22 22 21 21 20 20 20 20 20 20 20 21 21 20 19 18 18 18 18 18 18 18 18 18 18 17
22 21 20 20 20 20 21 21 21 20 20 19 19 20 20 19 20 20 20 20 19 18 18 18 18 17 17 18 18 18 19 18
21 21 21 20 20 20 19 19 19 19 19 19 18 19 19 19 19 19 20 20 18 18 17 17 17 18 18 18 18 18 18 18
19 18 20 20 20 20 18 18 18 18 18 18 18 18 18 18 18 19 19 19 19 18 18 17 17 17 18 18 17 18 18 18
21 19 18 20 20 20 20 19 18 18 18 18 18 18 17 18 18 18 19 19 19 19 18 18 17 18 18 17 18 18 17 17
24 22 20 19 20 21 20 19 18 17 18 18 18 17 17 17 17 18 18 19 19 18 18 18 17 17 17 17 17 17 18 16
24 25 22 19 20 20 19 18 17 16 17 17 18 17 17 17 17 17 17 18 18 17 17 18 17 17 17 17 17 17 17 17
24 22 20 21 19 19 19 19 17 17 16 17 17 17 17 17 17 16 17 17 17 17 17 17 16 16 16 16 16 17 16 16
25 23 21 21 20 19 18 18 16 16 16 16 17 16 16 17 17 17 16 16 16 15 15 16 16 15 16 16 16 16 16 16
25 23 21 20 18 17 16 16 16 16 16 16 16 17 16 16 17 17 16 16 15 15 15 15 16 16 15 15 15 15 15 15
26 21 20 17 17 17 17 17 16 16 16 16 16 17 16 16 17 16 16 16 16 16 15 14 14 15 14 13 13 14 14 14
20 21 19 18 18 17 17 17 17 17 17 17 18 18 18 16 16 16 16 17 16 16 15 14 14 14 14 13 13 12 12 13
20 19 19 18 18 18 17 17 16 16 17 17 17 17 18 18 17 16 16 16 15 15 15 15 14 14 15 14 13 13 12 12
18 18 17 18 17 17 17 17 17 18 19 21 21 20 20 18 18 17 16 16 15 15 15 15 14 14 14 16 16 15 12 12
16 16 17 16 17 17 17 19 20 19 19 18 18 17 17 17 18 17 17 16 15 15 15 14 14 14 14 14 15 15 15 12
15 17 16 17 17 17 18 17 17 17 18 17 16 17 17 16 17 17 16 16 15 15 15 14 14 14 14 14 15 15 13 14
15 14 14 16 16 17 15 17 17 17 16 16 15 15 15 16 16 16 16 15 15 15 14 14 14 14 14 14 14 15 16 15
12 12 11 13 15 16 15 15 15 15 15 15 15 15 16 15 15 16 15 16 15 15 15 14 14 14 14 14 14 14 14 15

GFSFLT2_925_temp_141.txt.gz
Temp
22 22 21 21 21 21 21 21 22 22 21 21 21 21 21 20 20 20 19 19 19 19 19 19 18 19 19 18 18 18 18 17
21 21 21 20 20 21 21 21 21 21 21 21 21 21 21 20 20 20 19 19 19 19 19 19 19 19 18 18 18 18 18 18
19 19 18 19 19 20 20 20 20 20 20 20 20 20 20 20 20 20 19 19 19 19 18 18 18 19 18 19 18 17 18 18
18 18 18 18 18 19 19 19 19 18 19 19 18 19 19 19 20 19 19 19 18 18 18 18 18 17 17 19 18 17 17 17
19 19 20 19 18 18 18 18 18 18 18 19 18 19 19 19 19 18 18 18 17 17 17 17 16 17 16 17 18 17 17 17
20 19 20 18 17 17 18 18 18 18 18 18 18 17 18 18 18 18 18 17 17 17 17 16 16 17 17 17 18 17 18 17
22 20 19 18 17 17 17 17 17 17 18 18 18 18 18 18 18 18 18 18 16 16 16 16 16 16 17 17 17 18 17 17
25 23 22 19 18 17 17 17 17 17 17 17 18 17 17 18 17 18 18 18 17 16 16 16 16 16 17 17 17 17 17 17
21 23 24 24 23 21 17 17 17 17 17 17 18 17 17 17 17 17 18 18 18 17 16 17 15 15 16 16 16 16 17 17
22 22 22 21 21 20 20 18 17 17 17 16 17 17 17 17 16 16 17 18 17 15 15 16 15 15 15 15 16 16 16 17
24 21 21 21 21 20 18 18 17 17 17 16 17 16 17 16 16 16 16 16 16 15 15 15 15 15 15 15 15 16 16 17
24 23 23 22 19 17 16 16 16 17 17 16 16 16 16 17 16 16 17 16 15 15 15 14 14 14 15 15 15 15 16 15
23 22 23 19 17 16 16 16 16 16 16 16 16 16 16 16 16 16 17 16 15 15 14 14 14 14 14 14 13 14 14 14
21 21 22 19 18 17 17 17 16 16 16 15 15 16 16 16 16 16 16 15 15 15 15 14 14 14 14 14 14 13 13 13
18 18 18 19 19 18 17 17 17 16 16 16 16 17 16 16 16 16 16 15 15 15 15 15 14 14 15 16 14 15 14 12
16 17 17 17 18 18 18 18 17 16 16 16 18 21 20 17 16 17 16 15 15 15 15 15 14 14 14 15 16 18 18 14
14 15 16 17 18 18 18 18 18 17 16 17 18 18 20 19 19 16 17 16 15 15 15 15 14 14 14 15 16 15 16 17
14 14 14 16 17 17 17 17 16 18 18 17 16 16 17 16 19 16 17 16 15 16 15 15 15 15 14 15 16 16 16 18
12 12 11 12 13 14 14 15 16 16 16 16 17 16 15 16 16 16 16 16 15 15 15 15 15 14 14 14 15 16 17 18
9 10 10 10 10 10 11 13 14 15 16 14 14 15 15 14 15 15 15 15 15 15 15 15 14 14 14 14 14 15 15 16

GFSFLT2_925_temp_144.txt.gz
Temp
21 20 21 21 21 21 22 22 21 21 21 21 21 21 21 20 20 20 20 20 20 20 19 19 19 19 19 19 19 19 21 21
21 20 20 19 19 21 21 21 21 21 21 21 21 20 20 20 20 20 20 19 19 19 19 19 19 19 19 19 19 19 21 20
21 20 19 19 20 19 20 20 20 20 20 20 20 20 19 19 19 19 19 19 19 19 19 19 19 18 19 19 19 20 20 19
21 19 18 18 18 18 19 19 19 19 19 19 20 21 21 20 19 19 19 19 19 18 18 18 18 19 18 18 19 20 20 20
20 19 18 18 18 18 18 21 20 20 20 20 20 21 21 20 20 18 18 18 18 17 17 18 19 20 20 19 20 19 19 20
22 20 19 18 19 18 18 18 19 20 20 20 19 18 19 20 21 20 20 19 20 19 19 20 20 20 20 19 19 20 19 18
23 21 20 19 19 20 19 18 19 21 20 18 19 19 20 20 21 21 20 20 20 20 20 20 19 20 19 19 19 19 18 18
24 22 21 20 19 19 20 20 20 20 20 18 18 20 20 19 21 21 20 20 20 20 20 20 20 20 19 19 19 19 18 17
25 23 22 20 20 19 20 21 21 20 21 19 18 18 18 18 20 20 20 20 20 20 20 20 20 19 19 19 19 19 18 16
25 24 23 21 21 21 21 21 21 21 21 21 18 17 18 18 18 20 20 19 19 19 19 18 19 20 20 19 19 20 19 17
24 23 23 21 20 20 20 21 21 21 21 21 19 17 17 17 19 18 19 18 19 19 19 19 18 20 20 20 20 20 19 19
22 22 22 22 20 19 20 21 21 21 21 21 20 17 17 17 17 17 17 17 18 18 19 19 18 19 20 20 19 19 19 18
20 21 21 21 22 21 21 22 21 21 21 21 20 18 17 17 17 17 17 17 18 17 17 16 17 16 18 18 17 17 18 18
19 20 21 22 22 23 22 22 21 21 21 20 20 19 18 17 17 17 18 17 17 16 16 15 16 15 16 16 15 15 16 17
18 18 20 21 22 22 23 21 20 20 19 18 19 18 18 17 18 17 17 16 16 16 15 15 15 15 16 18 15 17 17 17
17 18 19 20 21 21 22 22 21 19 19 17 17 17 17 17 17 17 17 18 16 15 15 15 15 15 15 16 18 20 20 18
16 17 18 19 20 20 21 22 21 20 17 16 16 17 17 17 17 16 16 16 17 16 15 15 15 15 15 15 17 18 20 22
7 11 13 13 17 20 20 20 20 19 18 16 16 17 17 17 17 17 17 17 17 18 16 15 15 15 15 15 16 17 19 20
4 6 9 10 11 13 17 19 19 18 18 18 17 15 15 16 16 15 17 16 18 17 16 15 15 15 15 15 15 17 18 20
2 3 5 7 9 10 11 14 16 16 17 17 18 17 15 17 18 16 15 17 16 15 15 15 15 15 15 15 15 15 17 18

GFSFLT2_925_temp_147.txt.gz
Temp
23 20 21 22 22 22 22 22 22 22 21 21 21 21 21 20 20 20 20 20 20 20 20 19 19 19 19 19 19 20 21 23
24 21 20 20 20 21 21 21 21 21 21 20 20 20 20 20 20 20 20 19 19 20 19 19 19 19 19 19 19 20 20 19
23 23 22 21 21 20 20 20 20 21 20 20 20 20 19 19 20 20 19 19 19 19 19 19 19 19 19 19 19 21 22 21
23 23 23 22 23 22 20 20 19 19 19 19 19 21 21 21 21 19 19 19 19 19 19 19 19 19 18 18 19 21 21 22
24 23 21 21 22 22 21 22 21 21 21 21 20 22 22 22 21 19 18 18 18 18 18 18 19 21 21 20 21 21 22 22
26 24 21 20 22 21 21 23 22 22 22 21 22 22 23 23 23 21 20 20 20 19 20 20 21 21 21 21 21 22 21 21
26 24 23 21 21 22 22 22 22 23 23 22 22 22 22 22 23 22 22 22 21 21 22 21 21 21 21 21 21 21 21 19
27 25 23 22 21 22 22 21 21 21 23 22 21 21 21 22 23 23 23 23 22 22 22 22 22 20 21 21 21 21 20 20
27 27 24 23 22 22 22 22 22 22 22 22 20 20 22 22 22 23 23 23 22 22 22 22 22 22 21 20 21 21 20 19
25 26 26 24 23 22 22 23 23 23 22 22 21 19 20 22 21 23 23 23 22 22 22 22 22 22 22 21 20 21 20 19
22 23 24 24 24 23 23 23 23 23 23 23 22 19 18 20 20 22 23 22 22 21 22 22 21 22 22 21 21 21 20 19
21 21 22 23 22 23 23 22 22 23 23 23 23 21 18 18 20 21 21 21 20 21 21 21 21 21 22 22 20 20 20 19
18 19 20 21 23 23 23 22 23 23 23 23 23 22 19 18 18 20 19 20 19 20 20 20 20 20 21 20 19 19 19 19
13 14 18 20 21 23 24 24 24 24 23 23 23 22 21 18 18 19 19 19 18 18 18 18 19 19 20 20 18 17 18 18
9 10 12 17 20 21 23 23 24 24 23 23 22 22 22 19 18 19 19 19 18 18 17 17 16 16 18 18 16 17 18 18
7 7 8 11 13 19 21 23 24 24 23 23 22 22 21 20 19 19 19 18 18 18 17 17 16 15 15 16 19 20 20 20
6 5 5 6 7 11 14 19 23 23 24 23 22 21 21 20 19 19 18 18 18 17 16 16 15 16 15 15 16 17 19 18
4 3 3 3 3 6 8 12 18 22 24 23 21 20 19 19 18 18 18 18 17 16 16 15 15 15 15 15 16 17 17 18
2 1 2 2 2 4 5 7 10 17 21 22 20 19 18 17 18 18 17 17 16 16 16 16 15 15 15 15 15 16 17 18
2 0 0 1 1 2 4 5 6 12 18 19 18 16 15 15 16 16 15 15 16 14 16 16 16 15 15 15 15 15 15 17

GFSFLT2_925_temp_153.txt.gz
Temp
24 24 23 22 22 22 22 23 23 22 21 21 21 21 20 20 20 20 20 19 19 19 19 19 19 19 20 19 18 18 19 19
24 24 23 22 22 21 22 22 22 22 21 21 21 20 20 20 20 20 19 19 19 19 19 19 19 19 19 19 19 18 18 19
23 23 23 22 21 21 21 21 22 22 21 20 20 20 20 20 20 20 20 19 19 19 19 19 19 19 19 19 19 19 18 19
24 23 23 22 21 21 21 20 21 22 21 21 20 20 20 21 20 20 19 20 19 19 19 19 19 19 20 20 20 19 18 19
23 23 22 22 22 21 21 21 20 20 21 21 21 20 20 20 20 20 19 19 19 19 19 19 19 19 19 20 21 20 19 19
19 22 23 22 22 22 21 21 20 20 20 21 21 20 20 20 20 20 20 20 20 19 19 20 19 19 19 20 21 20 19 19
16 18 19 19 22 23 22 21 20 20 20 20 21 20 20 20 20 21 20 20 20 20 19 20 20 20 19 19 21 20 20 19
14 14 15 17 19 20 22 22 21 21 20 20 20 20 21 21 21 21 21 20 20 20 20 20 20 20 20 20 21 20 21 19
13 13 15 15 16 17 19 20 21 22 21 21 21 20 21 21 21 21 22 21 21 20 20 20 20 21 21 21 21 21 20 20
12 11 12 14 13 15 16 18 20 20 22 21 21 21 21 21 21 21 21 21 21 20 20 20 20 20 21 21 22 21 21 20
10 10 9 9 11 11 14 16 17 19 20 21 22 21 21 21 21 22 21 21 21 21 21 20 20 20 21 21 21 21 21 20
8 8 8 7 8 8 10 13 16 16 18 19 19 20 21 21 21 21 21 21 21 22 21 21 22 21 21 20 21 21 21 20
7 6 6 5 6 5 6 7 11 12 14 17 20 19 21 20 21 21 21 21 21 21 21 21 21 22 20 19 20 19 20 20
6 5 5 4 4 4 5 5 8 10 11 14 15 17 21 22 20 19 21 20 20 20 20 19 19 21 20 17 15 16 18 18
5 5 4 3 3 3 3 5 6 7 8 11 13 14 15 17 21 20 19 19 19 20 20 19 19 19 20 18 14 16 14 17
4 4 3 3 2 1 2 3 4 5 5 6 9 12 13 15 18 21 20 20 20 20 20 20 19 19 18 18 19 18 15 14
4 3 3 2 2 1 1 1 2 3 4 5 6 9 11 13 15 19 20 19 20 21 20 20 19 20 19 18 16 16 16 15
4 3 2 2 1 1 0 1 1 2 3 4 5 6 8 10 14 16 19 21 20 20 21 20 20 20 20 18 17 17 15 15
3 2 1 1 0 0 -0 -0 1 1 2 3 4 5 7 8 11 14 18 20 20 20 20 20 20 19 19 16 15 16 15 15
3 2 1 0 -0 -0 -0 -0 0 1 1 1 3 4 5 7 9 13 15 19 20 20 19 19 18 18 15 15 14 15 14 14

GFSFLT2_925_temp_159.txt.gz
Temp
19 20 20 21 22 22 22 22 21 21 21 21 21 21 20 20 20 20 20 20 19 19 19 19 19 19 19 18 19 19 18 18
18 18 18 18 19 19 20 21 21 21 20 20 20 21 20 20 20 20 20 20 19 19 19 19 19 19 19 18 19 19 18 18
16 16 17 18 18 18 18 19 20 21 20 19 18 19 20 20 20 20 20 19 19 19 19 19 19 19 18 18 19 19 19 19
16 17 17 17 17 17 17 18 18 18 20 20 19 18 19 19 20 19 19 19 19 19 19 19 19 19 18 18 19 19 19 19
15 16 17 17 17 17 17 17 17 18 18 19 20 20 19 18 18 19 19 18 18 18 18 18 19 19 19 18 19 19 19 19
13 15 16 17 17 16 16 16 17 17 17 18 18 19 19 19 18 18 18 19 18 18 18 18 19 19 19 18 18 19 19 19
12 14 16 16 17 17 17 16 15 15 16 17 17 17 19 19 19 19 18 18 18 18 18 18 18 19 19 18 18 19 19 19
11 13 13 13 14 15 15 16 16 15 15 15 16 16 17 18 19 19 18 18 18 18 19 18 18 19 19 19 18 18 19 19
8 11 13 13 12 12 13 14 14 14 14 14 12 14 14 15 17 18 19 19 19 18 18 18 18 18 18 19 19 18 18 19
7 9 10 11 12 12 12 12 13 13 12 13 11 13 12 13 13 16 17 18 19 19 18 17 17 17 18 19 19 19 19 18
7 9 9 9 10 11 11 11 12 11 11 10 9 11 11 10 12 14 14 16 17 17 17 17 16 16 17 17 18 19 18 18
8 8 8 8 9 10 10 11 11 10 10 8 8 8 7 9 10 10 12 12 14 16 16 16 16 16 16 16 17 19 18 18
6 5 4 4 3 3 4 7 8 9 8 8 7 5 6 6 6 8 9 10 11 13 16 16 16 16 16 16 16 17 18 17
5 5 4 3 2 1 1 2 4 5 6 6 5 4 4 4 5 6 7 8 9 11 13 15 16 16 16 17 16 16 15 16
4 4 4 3 3 2 2 1 1 1 2 4 4 3 3 3 4 5 6 6 8 10 12 13 15 16 16 18 15 17 15 15
4 3 3 3 2 1 0 -0 1 0 1 1 1 1 2 2 3 4 5 5 5 7 9 11 14 15 16 15 17 18 15 14
4 4 3 2 2 0 -0 -1 -0 0 0 0 0 1 1 1 2 3 3 4 5 6 7 9 11 14 16 16 16 15 15 15
4 3 2 1 0 0 -1 -1 -1 -0 1 0 -0 -0 0 1 1 2 3 4 4 5 6 7 9 12 15 16 16 14 14 15
3 2 2 1 1 0 -0 -1 -2 -1 -0 -0 -1 -0 -1 -0 0 1 2 3 4 5 5 7 8 11 14 15 15 14 14 14
3 2 2 1 1 0 -0 -1 -2 -2 -2 -1 -1 -1 -1 -1 -0 0 1 3 4 4 5 6 9 11 13 15 15 15 14 14